Das Wetter in  D-61279 Heinzenberg / Taunus





Wetter Minimum- & Maximum-Werte im August 2017

Standort: Heinzenberg / Taunus - Höhe 297 m         8 24' 1" Ost 50 21' 51" Nord
(   3-stündige Aktualisierung    letzte Aktualisierung um 19:04 am 31.08.2017  )


Messgrösse

Minimum

Maximum

Durchschnitt

Temperatur West /
Luftfeuchte West
Anklicken für Monats-Diagramm

8,0 C

06:38
07.08.2017

37 %

17:13
07.08.2017

31,5 C

16:43
29.08.2017

93 %

08:50
02.08.2017

Temp

18,0 C

Feuchte

76 %

Temperatur Ost /
Luftfeuchte Ost
Anklicken für Monats-Diagramm

8,5 C

06:48
07.08.2017

--

--
--

31,9 C

16:33
29.08.2017

--

--
--

18,4 C

--

Luftdruck Anklicken für Monats-Diagramm

1005,9 hPa

20:04
30.08.2017

1024,2 hPa

07:12
21.08.2017

1016,2 hPa

Taupunkt

5,1 C

06:38
07.08.2017

20,8 C

16:05
26.08.2017

13,4 C

Windchill
( gefühlte Temperatur )

4,3 C

08:25
19.08.2017

31,4 C

16:38
29.08.2017

17,2 C

Windgeschwindigkeit /
Windrichtung
Anklicken für Monats-Diagramm

---

62,1 km/h / W-SW

03:09
01.08.2017

5,6 km/h
W-SW

Helligkeit /
Sonnenschein
Anklicken für Monats-Diagramm
Anklicken für Monats-Diagramm

Sonnenschein:

188:26 Stunden

Max: 12:10 Std am
07.08.2017

121 klux

13:15
14.08.2017

35 klux

Solarstrahlung Anklicken für Monats-Diagramm

---

828 W/m

13:15
14.08.2017

257 W/m

Regenmenge
    August 2017
Anklicken für Monats-Diagramm

Insgesamt 122,4 l/m

in 70:39 Stunden
an 18 Tagen

36,3 l/m

14:12
11.08.2017

Gesamtmenge

122,4 l/m

Regen-Tage
    August 2017
Anklicken für Monats-Diagramm

>   0 mm/Tag

>   2 mm/Tag

>   5 mm/Tag

> 10 mm/Tag

> 20 mm/Tag

18 Tage     
7 Tage     
5 Tage     
4 Tage     
2 Tage     

Eisige Tage August 2017 / 2016

Tmin ≤ -10C     

0 Tage

/

0 Tage

Eistage August 2017 / 2016

Tmax <     0C     

0 Tage

/

0 Tage

Frosttage August 2017 / 2016

Tmin ≤     0C     

0 Tage

/

0 Tage

Kalte Tage August 2017 / 2016

Tmax <   10C     

0 Tage

/

0 Tage

Warme Tage August 2017 / 2016

Tmax ≥   20C     

26 Tage

/

25 Tage

Sommertage August 2017 / 2016

Tmax ≥   25C     

17 Tage

/

18 Tage

Heisse Tage August 2017 / 2016

Tmax ≥   30C     

  1 Tag

/

7 Tage


Monatsdiagramm August 2017

Die Kurven zeigen den Durchschnittswert des jeweiligen Tages an


Wetter-Monatsübersicht August 2017
Datum
  Temperatur
   Luftdruck
   Wind
  Regen
   Luftfeuchte
   Helligkeit

Sonnen-
schein


Temp.

Min.
Temp.

Max.
Temp.


Luftdruck

Min.
Luftdruck

Max.
Luftdruck

-Geschw.
Haupt-Richtg.

Max.
Wind

Menge /
Dauer


Feuchte

Min.
Feuchte

Max.
Feuchte


Helligkeit

Max.
Helligkeit

1.
August
19,5 C17,0 C
04:29
22,8 C
19:29
1014,2 hPa1011,6 hPa
01:44
1016,8 hPa
10:54
5,3 km/h
W-SW
62,1 km/h
03:09  
28,1 l/m
6:43 Stunden
87 %81 %
19:49
91 %
04:34
21,8 klux99,2 klux
12:04
3:25 Std 
2.
August
20,7 C15,4 C
05:55
27,1 C
17:30
1016,5 hPa1014,2 hPa
20:20
1018,3 hPa
07:15
5,2 km/h
W-SW
32,8 km/h
12:00  
0,2 l/m
15 Minuten
76 %56 %
17:25
93 %
08:50
40 klux109 klux
12:35
6:15 Std 
3.
August
21,1 C16,7 C
04:36
27,4 C
14:51
1011,5 hPa1009,7 hPa
14:51
1014,8 hPa
01:06
14,3 km/h
W-SW
46,7 km/h
14:11  
---
74 %51 %
14:56
90 %
08:11
31 klux112 klux
13:16
3:50 Std 
4.
August
20,0 C15,8 C
06:11
25,3 C
16:16
1012,3 hPa1011,3 hPa
11:41
1015,0 hPa
23:47
14,3 km/h
W
44,4 km/h
12:21  
---
67 %49 %
16:16
85 %
06:46
44 klux112 klux
14:11
6:35 Std 
5.
August
18,9 C14,1 C
03:17
24,8 C
13:27
1013,7 hPa1011,0 hPa
13:27
1018,3 hPa
23:53
12,7 km/h
W-SW
40,9 km/h
11:12  
---
70 %61 %
19:17
80 %
03:52
38 klux120 klux
12:57
5:24 Std 
6.
August
16,8 C10,8 C
05:28
24,2 C
17:43
1021,3 hPa1018,3 hPa
00:03
1022,8 hPa
23:58
4,6 km/h
NW
19,4 km/h
13:33  
---
67 %43 %
17:53
87 %
07:38
52 klux105 klux
12:38
12:05 Std 
7.
August
18,0 C8,0 C
06:38
28,7 C
17:08
1018,1 hPa1013,6 hPa
21:24
1023,1 hPa
02:13
2,7 km/h
SO
21,5 km/h
16:28  
---
62 %37 %
17:13
84 %
08:08
51 klux112 klux
13:33
12:10 Std 
8.
August
16,1 C11,2 C
05:54
22,3 C
18:04
1010,6 hPa1008,2 hPa
18:04
1014,5 hPa
01:59
3,9 km/h
W-SW
25,4 km/h
19:34  
0,9 l/m
2:00 Stunden
77 %69 %
19:34
85 %
08:49
21 klux91 klux
17:24
3:10 Std 
9.
August
17,9 C11,8 C
06:30
26,2 C
18:20
1014,9 hPa1012,1 hPa
00:00
1017,1 hPa
23:36
4,9 km/h
W-SW
24,3 km/h
08:15  
0,2 l/m
30 Minuten
68 %41 %
18:25
86 %
07:10
44,6 klux111,0 klux
12:20
8:15 Std 
10.
August
14,3 C13,2 C
23:57
16,3 C
00:01
1018,3 hPa1016,1 hPa
00:01
1019,5 hPa
11:46
1,9 km/h
NW
14,2 km/h
16:51  
17,6 l/m
14:00 Stunden
88 %75 %
00:01
91 %
18:16
7 klux20 klux
13:01
--- 
11.
August
13,3 C12,6 C
22:48
14,8 C
14:27
1015,7 hPa1014,2 hPa
14:27
1017,5 hPa
00:27
4,9 km/h
NW
22,6 km/h
14:02  
36,3 l/m
17:51 Stunden
92 %91 %
00:02
93 %
11:12
7,3 klux32,9 klux
14:27
--- 
12.
August
13,8 C11,4 C
05:03
15,5 C
18:38
1016,4 hPa1015,4 hPa
09:18
1018,3 hPa
22:08
11,3 km/h
W-SW
29,6 km/h
17:13  
9,6 l/m
9:45 Stunden
90 %87 %
11:58
93 %
00:03
16,4 klux40,6 klux
17:18
--- 
13.
August
18,3 C13,6 C
23:45
24,7 C
17:54
1018,4 hPa1017,3 hPa
00:04
1021,6 hPa
23:45
7,2 km/h
W-SW
29,5 km/h
04:09  
1,8 l/m
2:55 Stunden
78 %54 %
17:59
92 %
02:04
45,2 klux108,0 klux
13:04
8:14 Std 
14.
August
18,2 C10,0 C
05:40
26,9 C
15:30
1018,9 hPa1015,2 hPa
19:55
1021,9 hPa
03:25
4,2 km/h
SO
25,9 km/h
13:50  
---
75 %56 %
15:30
90 %
08:35
43 klux121 klux
13:15
7:25 Std 
15.
August
19,0 C13,2 C
06:56
27,5 C
13:21
1016,0 hPa1014,4 hPa
10:01
1017,3 hPa
01:36
3,7 km/h
W-SW
20,3 km/h
15:01  
0,3 l/m
1:15 Stunden
80 %61 %
13:21
91 %
08:46
28 klux109 klux
13:36
5:25 Std 
16.
August
20,4 C15,9 C
06:16
27,6 C
15:22
1019,2 hPa1016,8 hPa
00:12
1021,1 hPa
08:42
2,0 km/h
W
22,3 km/h
00:17  
0,9 l/m
2:40 Stunden
75 %49 %
15:12
91 %
07:02
42 klux95 klux
12:57
6:20 Std 
17.
August
19,2 C13,5 C
07:03
26,2 C
15:23
1016,5 hPa1013,9 hPa
15:38
1019,3 hPa
00:53
6,0 km/h
W-SW
35,1 km/h
15:08  
0,2 l/m
50 Minuten
77 %55 %
16:03
89 %
08:23
35,4 klux112,0 klux
14:28
5:30 Std 
18.
August
18,5 C15,4 C
21:49
24,0 C
13:29
1013,1 hPa1010,2 hPa
14:34
1016,0 hPa
01:59
8,0 km/h
W-SW
29,0 km/h
14:44  
15,8 l/m
3:25 Stunden
82 %68 %
13:34
90 %
17:44
21 klux98 klux
11:34
1:15 Std 
19.
August
14,4 C10,3 C
05:30
18,8 C
14:50
1017,5 hPa1014,1 hPa
00:00
1020,6 hPa
22:46
12,4 km/h
W-SW
42,1 km/h
11:40  
0,6 l/m
50 Minuten
79 %61 %
14:55
90 %
06:25
36,7 klux119,0 klux
14:00
5:40 Std 
20.
August
13,8 C9,6 C
06:41
18,2 C
12:56
1022,2 hPa1020,6 hPa
00:01
1024,0 hPa
23:57
5,0 km/h
W
31,0 km/h
13:01  
0,2 l/m
25 Minuten
79 %62 %
13:11
90 %
06:56
36 klux102 klux
13:56
5:55 Std 
21.
August
15,1 C9,0 C
07:12
22,2 C
15:02
1022,8 hPa1020,6 hPa
17:12
1024,2 hPa
07:12
2,2 km/h
NW
21,6 km/h
14:02  
---
74 %54 %
16:52
89 %
08:02
41 klux88 klux
13:37
8:45 Std 
22.
August
16,1 C8,0 C
07:13
26,0 C
16:23
1020,1 hPa1017,1 hPa
18:53
1022,8 hPa
00:43
1,1 km/h
SO
9,9 km/h
14:58  
---
72 %48 %
18:58
88 %
08:33
42,4 klux101,0 klux
14:18
7:35 Std 
23.
August
18,3 C9,2 C
05:58
28,9 C
16:08
1016,0 hPa1012,8 hPa
18:43
1018,9 hPa
04:33
3,3 km/h
O-SO
19,7 km/h
14:28  
---
69 %44 %
15:28
88 %
08:44
48 klux86 klux
13:28
10:34 Std 
24.
August
17,9 C14,1 C
03:24
24,4 C
17:54
1015,5 hPa1014,1 hPa
00:04
1017,3 hPa
23:50
4,6 km/h
W-NW
20,8 km/h
11:39  
---
76 %58 %
17:59
87 %
08:24
31,2 klux102,0 klux
14:34
3:50 Std 
25.
August
18,7 C11,1 C
06:50
29,3 C
16:00
1016,8 hPa1014,0 hPa
17:25
1018,8 hPa
06:50
0,6 km/h
O-NO
9,5 km/h
16:45  
4,4 l/m
1:45 Stunden
76 %50 %
16:10
88 %
07:55
39 klux86 klux
13:55
7:55 Std 
26.
August
20,9 C16,4 C
03:30
27,3 C
16:15
1014,3 hPa1012,8 hPa
16:15
1016,1 hPa
04:10
3,2 km/h
W-NW
24,2 km/h
05:15  
4,3 l/m
1:40 Stunden
82 %66 %
16:20
92 %
07:35
40,6 klux85,1 klux
13:50
8:20 Std 
27.
August
19,6 C14,4 C
06:36
25,9 C
14:46
1016,4 hPa1014,8 hPa
00:01
1018,1 hPa
23:57
1,8 km/h
NW
15,3 km/h
14:51  
---
79 %61 %
14:51
91 %
08:51
36,4 klux86,2 klux
14:26
5:50 Std 
28.
August
19,8 C12,2 C
07:07
28,7 C
16:22
1017,8 hPa1015,7 hPa
16:22
1019,7 hPa
07:27
1,3 km/h
W-NW
12,0 km/h
15:47  
---
73 %52 %
14:37
88 %
07:12
47,5 klux86,2 klux
14:07
11:20 Std 
29.
August
21,0 C12,4 C
06:53
31,5 C
16:43
1014,4 hPa1011,3 hPa
16:43
1017,4 hPa
03:53
2,1 km/h
SO
23,6 km/h
16:43  
---
70 %42 %
16:43
88 %
08:58
48,2 klux85,6 klux
13:18
11:30 Std 
30.
August
20,8 C14,5 C
07:09
27,2 C
13:09
1008,7 hPa1005,9 hPa
20:04
1012,9 hPa
00:29
6,7 km/h
W-SW
28,8 km/h
15:04  
0,2 l/m
40 Minuten
74 %59 %
12:49
87 %
07:34
32,2 klux81,3 klux
12:44
4:44 Std 
31.
August
16,8 C11,8 C
23:51
20,5 C
00:15
1013,8 hPa1007,3 hPa
00:15
1020,8 hPa
23:51
11,1 km/h
W-NW
33,9 km/h
12:30  
0,9 l/m
3:10 Stunden
79 %69 %
14:10
87 %
09:40
22,2 klux107,0 klux
13:15
1:10 Std 



August
2017

Temperatur

  

Luftdruck

  

Wind

  

Regen

  

Luftfeuchte

  

Helligkeit

Sonnen-
schein

Min

Max

Min

Max

Max

Max

Min

Max

Max

Max

18,0 C

8,0 C

06:38 Uhr
07.08.2017

31,5 C

16:43 Uhr
29.08.2017

1016,2 hPa

1005,9 hPa

20:04 Uhr
30.08.2017

1024,2 hPa

07:12 Uhr
21.08.2017

5,6 km/h

W-SW

62,1 km/h

03:09 Uhr
01.08.2017

36,3 l/m

17:51 Stunden
11.08.2017

76 %

37 %

17:13 Uhr
07.08.2017

93 %

08:50 Uhr
02.08.2017

35 klux

121,0 klux

13:15 Uhr
14.08.2017

12:10 Std

am
07.08.2017

Gesamt

Gesamt

122,4 l/m

18 Tage
70:39 h

188:26 Std


Wetter-Diagramme August 2017     Heinzenberg / Taunus   
TemperaturLuftfeuchte
SolarstrahlungLuftdruck
HelligkeitSonnenschein
RegenmengeRegendauer
Wind-GeschwindigkeitWind-Richtung